Yeovilton, United Kingdom

3:50 PM BST on June 22, 2018 (GMT +0100)
Yeovil Radar Navy

Weather History for EGDY - October, 2017

Change the Weather History Date:

Tuesday, October 10, 2017

  Actual Average Record
Temperature  
Mean Temperature 58 °F -  
Max Temperature 65 °F 55 °F 69 °F (2005)
Min Temperature 51 °F 42 °F 32 °F (2016)
Degree Days  
Heating Degree Days 7    
Growing Degree Days 8 (Base 50)    
Moisture  
Dew Point 54 °F    
Average Humidity 84    
Maximum Humidity 94    
Minimum Humidity 65    
Precipitation  
Precipitation 0.00 in - - ()
Sea Level Pressure  
Sea Level Pressure 30.00 in    
Wind  
Wind Speed 7 mph ()    
Max Wind Speed 13 mph    
Max Gust Speed -    
Visibility 8.4 miles    
Events Rain    
Averages and records for this station are not official NWS values.
T = Trace of Precipitation, MM = Missing Value Source: Averaged Metar Reports

Daily Weather History Graph

Daily Weather History Graph

Search for Another Location

Airport or City:

Astronomy

Oct. 10, 2017 Rise Set
Actual Time 7:25 AM BST 6:28 PM BST
Civil Twilight 6:52 AM BST 7:01 PM BST
Nautical Twilight 6:14 AM BST 7:39 PM BST
Astronomical Twilight 5:35 AM BST 8:17 PM BST
Moon 9:54 PM BST (10/10) 12:49 PM BST (10/10)
Length of Visible Light 12h 08m
Length of Day
11h 02m
Waning Gibbous, 73% of the Moon is Illuminated
Oct 10
Waning Gibbous
Oct 12
Last Quarter
Oct 19
New
Oct 27
First Quarter
Nov 4
Full

Hourly Weather History & Observations

Time (BST) Temp. Dew Point Humidity Pressure Visibility Wind Dir Wind Speed Gust Speed Precip Events Conditions
12:00 AM 54 °F 50 °F 82% 30.06 in 28 mi SW 6.9 mph - -   Mostly Cloudy
12:50 AM 53.6 °F 50.0 °F 88% 30.04 in 6.2 mi SSW 6.9 mph - N/A   Mostly Cloudy
1:00 AM 53 °F 50 °F 87% 30.05 in 31 mi SSW 6.9 mph - -   Scattered Clouds
1:50 AM 51.8 °F 50.0 °F 94% 30.04 in 6.2 mi SSE 3.5 mph - N/A   Scattered Clouds
2:00 AM 51 °F 49 °F 92% 30.05 in 12 mi SSE 3.5 mph - -   Mostly Cloudy
2:50 AM 53.6 °F 51.8 °F 94% 30.04 in 6.2 mi SSW 5.8 mph - N/A   Mostly Cloudy
3:50 AM 55.4 °F 51.8 °F 88% 30.01 in 6.2 mi SSW 6.9 mph - N/A   Mostly Cloudy
4:00 AM 55 °F 52 °F 87% 30.02 in 12 mi SSW 6.9 mph - -   Mostly Cloudy
4:50 AM 55.4 °F 51.8 °F 88% 30.01 in 6.2 mi SW 6.9 mph - N/A   Mostly Cloudy
5:00 AM 55 °F 52 °F 87% 30.02 in 12 mi SW 6.9 mph - -   Mostly Cloudy
5:50 AM 55.4 °F 51.8 °F 88% 30.01 in 6.2 mi SSW 6.9 mph - N/A   Mostly Cloudy
6:00 AM 55 °F 52 °F 85% 30.01 in 12 mi SSW 6.9 mph - -   Mostly Cloudy
6:50 AM 55.4 °F 51.8 °F 88% 30.01 in 6.2 mi SW 5.8 mph - N/A   Mostly Cloudy
7:50 AM 55.4 °F 51.8 °F 88% 29.98 in 6.2 mi SSW 8.1 mph - N/A   Mostly Cloudy
8:00 AM 55 °F 51 °F 84% 30.01 in 9 mi SSW 8.1 mph - -   Mostly Cloudy
8:50 AM 57.2 °F 51.8 °F 82% 30.01 in 6.2 mi SW 8.1 mph - N/A   Scattered Clouds
9:00 AM 57 °F 51 °F 76% 30.02 in 9 mi SW 8.1 mph - -   Mostly Cloudy
9:50 AM 57.2 °F 53.6 °F 88% 30.01 in 6.2 mi SSW 9.2 mph - N/A   Mostly Cloudy
10:00 AM 58 °F 53 °F 77% 30.02 in 9 mi SSW 9.2 mph - -   Mostly Cloudy
10:50 AM 59.0 °F 51.8 °F 77% 30.01 in 6.2 mi SW 6.9 mph - N/A   Mostly Cloudy
11:00 AM 59 °F 53 °F 73% 30.02 in 9 mi SW 6.9 mph - -   Mostly Cloudy
11:50 AM 60.8 °F 55.4 °F 82% 30.01 in 6.2 mi SW 11.5 mph - N/A   Mostly Cloudy
12:00 PM 61 °F 55 °F 74% 30.02 in 9 mi SW 11.5 mph - -   Mostly Cloudy
12:50 PM 60.8 °F 55.4 °F 82% 30.01 in 6.2 mi SSW 12.7 mph - N/A   Mostly Cloudy
1:00 PM 62 °F 56 °F 74% 30.01 in 12 mi SSW 12.7 mph - -   Mostly Cloudy
1:50 PM 62.6 °F 57.2 °F 82% 29.98 in 6.2 mi SSW 11.5 mph - N/A   Mostly Cloudy
2:00 PM 63 °F 57 °F 76% 30.00 in 12 mi SSW 11.5 mph - -   Mostly Cloudy
2:50 PM 64.4 °F 55.4 °F 73% 29.98 in 6.2 mi SW 11.5 mph - N/A   Mostly Cloudy
3:00 PM 65 °F 56 °F 65% 29.98 in 12 mi SW 11.5 mph - -   Mostly Cloudy
3:50 PM 62.6 °F 57.2 °F 82% 29.98 in 6.2 mi SW 8.1 mph - N/A   Mostly Cloudy
4:50 PM 62.6 °F 55.4 °F 77% 29.95 in 6.2 mi SSW 10.4 mph - N/A   Mostly Cloudy
5:00 PM 63 °F 56 °F 70% 29.97 in 16 mi SSW 10.4 mph - -   Mostly Cloudy
5:50 PM 62.6 °F 57.2 °F 82% 29.95 in 6.2 mi SSW 8.1 mph - N/A   Mostly Cloudy
6:00 PM 62 °F 57 °F 79% 29.97 in 6 mi SSW 8.1 mph - - Rain Light Rain
6:50 PM 59.0 °F 57.2 °F 94% 29.95 in 6.2 mi SW 11.5 mph - N/A Rain Light Rain
7:00 PM 60 °F 57 °F 88% 29.97 in 9 mi SW 11.5 mph - - Rain Light Rain
7:50 PM 60.8 °F 57.2 °F 88% 29.95 in 6.2 mi SW 12.7 mph - N/A Rain Light Rain
8:00 PM 60 °F 56 °F 83% 29.97 in 12 mi SW 12.7 mph - - Rain Light Rain
8:50 PM 59.0 °F 55.4 °F 88% 29.95 in 6.2 mi SSW 9.2 mph - N/A   Mostly Cloudy
9:00 PM 59 °F 56 °F 87% 29.97 in 16 mi SSW 9.2 mph - - Rain Light Rain
9:50 PM 60.8 °F 57.2 °F 88% 29.95 in 6.2 mi SSW 11.5 mph - N/A   Mostly Cloudy
10:50 PM 59.0 °F 57.2 °F 94% 29.95 in 6.2 mi SSW 9.2 mph - N/A   Mostly Cloudy
11:00 PM 59 °F 56 °F 88% 29.97 in 16 mi SSW 9.2 mph - -   Mostly Cloudy
11:50 PM 60.8 °F 57.2 °F 88% 29.95 in 6.2 mi SSW 11.5 mph - N/A   Mostly Cloudy